FW5817 Weather Reports


time (UTC)temp
C
wind
direction
speed
KPH
gust
KPH
rain 1hr
cm
rain 24hr
cm
rain mn
cm
humidity
%
barometer
mb
20260510045012 12 193 1.6 4.8 0.00 1.12 0.00 86 1010.3
20260510044529 12 193 1.6 4.8 0.00 1.12 0.00 86 1010.4
20260510044018 12 192 0.0 8.0 0.00 1.12 0.00 86 1010.2
20260510043516 12 192 0.0 11.3 0.00 1.12 0.00 86 1009.9
20260510043029 12 192 3.2 11.3 0.00 1.12 0.00 86 1009.5
20260510042512 12 181 1.6 11.3 0.00 1.12 0.00 86 1009.3
20260510042007 12 169 1.6 14.5 0.00 1.12 0.00 86 1009.1
20260510041523 12 177 3.2 16.1 0.00 1.12 0.00 86 1009.1
20260510041008 12 159 6.4 16.1 0.03 1.12 0.00 86 1009.2
20260510040507 12 163 1.6 12.9 0.03 1.12 0.00 86 1009.2
20260510040024 12 176 1.6 12.9 0.03 1.12 0.00 86 1009.2
20260510035508 12 163 3.2 22.5 0.03 1.12 1.12 85 1009.1
20260510035010 12 149 8.0 22.5 0.03 1.12 1.12 86 1009.2
20260510034526 12 167 3.2 16.1 0.03 1.12 1.12 86 1009.2
20260510034008 12 157 8.0 16.1 0.03 1.12 1.12 86 1009.2
20260510033510 12 175 4.8 12.9 0.03 1.12 1.12 86 1009.3
20260510033007 12 132 3.2 12.9 0.03 1.12 1.12 86 1009.2
20260510032507 12 167 0.0 11.3 0.03 1.12 1.12 87 1009.3
20260510032004 12 202 3.2 9.7 0.03 1.12 1.12 87 1009.4
20260510031509 12 185 1.6 6.4 0.03 1.12 1.12 87 1009.3
20260510031004 12 164 0.0 3.2 0.00 1.09 1.09 87 1009.4
20260510030504 12 164 0.0 3.2 0.00 1.09 1.09 86 1009.4
20260510030007 12 164 0.0 3.2 0.00 1.09 1.09 87 1009.4
20260510025504 12 164 0.0 6.4 0.00 1.09 1.09 87 1009.5
20260510025004 12 164 0.0 8.0 0.00 1.09 1.09 87 1009.5
20260510024507 11 179 0.0 8.0 0.00 1.09 1.09 88 1009.3
20260510024003 11 155 0.0 8.0 0.00 1.09 1.09 88 1009.3
20260510023505 11 160 0.0 8.0 0.00 1.09 1.09 88 1009.3
20260510023007 11 160 0.0 8.0 0.00 1.09 1.09 88 1009.3
20260510022507 11 153 3.2 4.8 0.00 1.09 1.09 87 1009.3
20260510022006 11 155 0.0 0.0 0.00 1.09 1.09 87 1009.3
20260510021526 11 155 0.0 1.6 0.00 1.09 1.09 87 1009.4
20260510021007 11 155 0.0 1.6 0.00 1.09 1.09 87 1009.4
20260510020507 11 155 0.0 1.6 0.00 1.09 1.09 87 1009.4
20260510020010 12 155 0.0 3.2 0.00 1.09 1.09 87 1009.3
20260510015505 12 155 0.0 3.2 0.00 1.09 1.09 87 1009.2
20260510015004 12 155 0.0 3.2 0.00 1.09 1.09 87 1009.1
20260510014519 12 155 0.0 3.2 0.00 1.09 1.09 86 1009.0
20260510014004 12 155 0.0 3.2 0.00 1.09 1.09 86 1009.0
20260510013506 12 155 0.0 4.8 0.00 1.09 1.09 86 1008.9
20260510013006 12 155 0.0 6.4 0.00 1.09 1.09 86 1008.9
20260510012505 12 155 1.6 6.4 0.00 1.09 1.09 86 1008.9
20260510012009 12 30 0.0 3.2 0.00 1.09 1.09 86 1008.9
20260510011516 12 30 0.0 3.2 0.00 1.09 1.09 85 1008.8
20260510011003 12 30 1.6 3.2 0.00 1.09 1.09 85 1008.8
20260510010504 12 161 0.0 6.4 0.00 1.09 1.09 85 1008.8
20260510010021 12 163 0.0 6.4 0.00 1.09 1.09 85 1008.7
20260510005507 12 163 1.6 6.4 0.00 1.09 1.09 85 1008.6
20260510005007 12 189 0.0 3.2 0.00 1.09 1.09 84 1008.6
20260510004512 12 189 0.0 3.2 0.00 1.09 1.09 84 1008.5
20260510004004 13 188 0.0 3.2 0.00 1.09 1.09 84 1008.6
20260510003505 13 189 0.0 3.2 0.00 1.09 1.09 83 1008.5
20260510003013 13 189 0.0 4.8 0.00 1.09 1.09 83 1008.6
20260510002505 13 188 3.2 4.8 0.00 1.09 1.09 83 1008.5
20260510002007 13 189 1.6 3.2 0.00 1.09 1.09 82 1008.5
20260510001511 14 190 1.6 3.2 0.00 1.09 1.09 1008.3
20260510001007 14 190 0.0 3.2 0.00 1.09 1.09 80 1008.2
20260510000507 15 190 1.6 3.2 0.00 1.09 1.09 80 1008.2
20260510000017 15 191 0.0 0.0 0.00 1.09 1.09 80 1008.2
20260509235507 15 191 0.0 1.6 0.00 1.09 1.09 79 1008.2
20260509235005 15 191 0.0 3.2 0.00 1.09 1.09 79 1008.2
20260509234515 16 191 0.0 3.2 0.00 1.09 1.09 78 1008.1
20260509234007 16 191 0.0 3.2 0.00 1.09 1.09 77 1008.1
20260509233506 16 191 1.6 3.2 0.00 1.09 1.09 76 1008.1
20260509233013 16 191 0.0 3.2 0.00 1.09 1.09 77 1008.1
20260509232507 16 191 0.0 3.2 0.00 1.09 1.09 77 1008.2
20260509232006 16 191 0.0 3.2 0.00 1.09 1.09 78 1008.1
20260509231506 16 191 0.0 3.2 0.00 1.09 1.09 79 1008.1
20260509231008 16 191 0.0 3.2 0.00 1.09 1.09 78 1008.1
20260509230507 16 191 0.0 6.4 0.00 1.09 1.09 78 1008.1
20260509230021 16 191 3.2 8.0 0.00 1.09 1.09 78 1008.1
20260509225509 16 189 0.0 8.0 0.00 1.09 1.09 80 1008.1
20260509225007 15 169 3.2 9.7 0.00 1.09 1.09 79 1008.2
20260509224521 15 252 1.6 9.7 0.00 1.09 1.09 79 1008.2
20260509224008 15 194 3.2 12.9 0.00 1.09 1.09 79 1008.2
20260509223512 16 178 6.4 12.9 0.00 1.09 1.09 78 1008.1
20260509223016 16 155 4.8 8.0 0.00 1.09 1.09 78 1008.1
20260509222509 16 213 1.6 6.4 0.00 1.09 1.09 78 1008.3
20260509222008 16 213 4.8 8.0 0.00 1.09 1.09 77 1008.3
20260509221515 16 215 0.0 8.0 0.00 1.09 1.09 77 1008.2
20260509221007 16 211 1.6 6.4 0.00 1.09 1.09 76 1008.3
20260509220505 16 264 0.0 6.4 0.00 1.09 1.09 77 1008.4
20260509220011 16 275 1.6 9.7 0.00 1.09 1.09 77 1008.4
20260509215506 16 200 1.6 9.7 0.00 1.09 1.09 78 1008.3
20260509215006 15 191 4.8 8.0 0.00 1.09 1.09 78 1008.3
20260509214516 15 163 0.0 11.3 0.00 1.09 1.09 81 1008.4
20260509214007 15 142 3.2 11.3 0.00 1.09 1.09 78 1008.4
20260509213506 15 200 4.8 12.9 0.00 1.09 1.09 80 1008.4
20260509213019 15 184 6.4 12.9 0.00 1.09 1.09 80 1008.4
20260509212506 15 151 4.8 9.7 0.00 1.09 1.09 83 1008.4
20260509212009 14 175 3.2 9.7 0.00 1.09 1.09 83 1008.6
20260509211519 14 157 3.2 8.0 0.00 1.09 1.09 85 1008.5
20260509211009 13 215 3.2 8.0 0.00 1.09 1.09 88 1008.6
20260509210508 13 217 3.2 8.0 0.00 1.09 1.09 89 1008.7
20260509210018 13 209 1.6 8.0 0.00 1.09 1.09 90 1008.7
20260509205508 12 203 3.2 6.4 0.00 1.09 1.09 91 1008.7
20260509205006 12 144 0.0 4.8 0.00 1.09 1.09 91 1008.7
20260509204513 12 143 1.6 8.0 0.00 1.09 1.09 92 1008.8
20260509204009 12 163 3.2 9.7 0.00 1.09 1.09 91 1008.8
20260509203507 12 157 4.8 11.3 0.00 1.09 1.09 92 1008.7
20260509203024 12 149 3.2 11.3 0.00 1.09 1.09 92 1008.6
20260509202508 12 173 3.2 8.0 0.00 1.09 1.09 93 1008.8
20260509202008 12 160 1.6 8.0 0.00 1.09 1.09 93 1008.7
20260509201522 12 162 4.8 8.0 0.00 1.09 1.09 93 1008.8
20260509201010 12 169 3.2 6.4 0.03 1.09 1.09 93 1008.8
20260509200510 12 167 1.6 4.8 0.03 1.09 1.09 93 1008.7
20260509200020 12 168 0.0 3.2 0.03 1.09 1.09 93 1008.7
20260509195512 12 168 0.0 3.2 0.03 1.09 1.09 92 1008.8
20260509195009 12 169 0.0 8.0 0.03 1.09 1.09 92 1008.9
20260509194531 12 169 0.0 9.7 0.05 1.09 1.09 92 1009.1
20260509194006 12 185 1.6 9.7 0.05 1.09 1.09 92 1009.3
20260509193509 12 167 4.8 11.3 0.05 1.09 1.09 92 1009.3
20260509193022 12 153 3.2 11.3 0.08 1.09 1.09 91 1009.4
20260509192508 12 194 6.4 11.3 0.08 1.09 1.09 91 1009.5
20260509192008 12 218 4.8 8.0 0.08 1.09 1.09 91 1009.5
20260509191520 12 160 4.8 11.3 0.08 1.09 1.09 91 1009.5
20260509191012 12 163 4.8 12.9 0.08 1.07 1.07 91 1009.6
20260509190509 12 158 3.2 12.9 0.08 1.07 1.07 92 1009.7
20260509190025 12 185 3.2 9.7 0.08 1.07 1.07 92 1009.7
20260509185510 12 200 6.4 12.9 0.10 1.07 1.07 92 1009.7
20260509185010 11 197 8.0 12.9 0.10 1.07 1.07 91 1009.6
20260509184527 12 221 1.6 8.0 0.08 1.04 1.04 92 1009.7
20260509184006 12 206 0.0 6.4 0.10 1.04 1.04 93 1009.7
20260509183507 11 193 0.0 4.8 0.10 1.04 1.04 93 1009.6
20260509183015 11 193 3.2 6.4 0.10 1.02 1.02 92 1009.6
20260509182508 11 199 1.6 6.4 0.10 1.02 1.02 92 1009.5
20260509182009 11 202 1.6 6.4 0.13 1.02 1.02 92 1009.5
20260509181517 11 202 3.2 8.0 0.15 1.02 1.02 92 1009.6
20260509181014 11 196 4.8 8.0 0.13 0.99 0.99 93 1009.7
20260509180509 11 267 1.6 6.4 0.15 0.99 0.99 93 1009.8
20260509180025 11 209 0.0 8.0 0.18 0.99 0.99 93 1009.9
20260509175506 11 208 3.2 8.0 0.18 0.97 0.97 93 1010.1
20260509175010 11 213 1.6 6.4 0.20 0.97 0.97 93 1010.1
20260509174522 11 182 1.6 12.9 0.25 0.97 0.97 93 1010.2
20260509174004 11 180 4.8 12.9 0.28 0.94 0.94 93 1010.2
20260509173506 11 196 3.2 8.0 0.30 0.94 0.94 93 1010.3
20260509173012 11 202 4.8 9.7 0.30 0.91 0.91 92 1010.3
20260509172509 11 188 3.2 9.7 0.36 0.91 0.91 92 1010.2
20260509172007 11 242 0.0 4.8 0.36 0.89 0.89 92 1010.3
20260509171515 11 232 0.0 9.7 0.33 0.86 0.86 92 1010.4
20260509171007 11 191 1.6 9.7 0.36 0.86 0.86 92 1010.4
20260509170509 11 186 1.6 8.0 0.36 0.84 0.84 92 1010.4
20260509170022 11 208 1.6 8.0 0.36 0.81 0.81 92 1010.1
20260509165508 11 223 0.0 4.8 0.36 0.79 0.79 92 1009.8
20260509165010 11 215 0.0 6.4 0.36 0.76 0.76 92 1009.8
20260509164524 11 192 0.0 11.3 0.33 0.71 0.71 92 1010.1
20260509164011 11 192 6.4 11.3 0.33 0.66 0.66 92 1010.2
20260509163508 11 159 1.6 11.3 0.36 0.64 0.64 92 1010.0
20260509163009 11 167 4.8 9.7 0.43 0.61 0.61 92 1009.9
20260509162506 11 154 1.6 11.3 0.43 0.56 0.56 92 1009.9
20260509162007 11 175 0.0 11.3 0.46 0.53 0.53 92 1010.1
20260509161514 11 200 4.8 8.0 0.48 0.53 0.53 91 1010.3
20260509161008 11 151 3.2 8.0 0.46 0.51 0.51 92 1010.4
20260509160507 11 157 3.2 9.7 0.46 0.48 0.48 92 1010.4
20260509160018 11 151 6.4 12.9 0.46 0.46 0.46 91 1010.5
20260509155507 11 177 1.6 12.9 0.43 0.43 0.43 91 1010.6
20260509155010 11 152 8.0 16.1 0.41 0.41 0.41 90 1010.7
20260509154524 11 150 4.8 16.1 0.38 0.38 0.38 90 1010.8
20260509154013 11 166 6.4 16.1 0.33 0.33 0.33 89 1010.8
20260509153510 11 202 8.0 14.5 0.28 0.28 0.28 89 1010.9
20260509153040 11 183 6.4 14.5 0.18 0.18 0.18 88 1011.1
20260509152511 11 205 4.8 9.7 0.13 0.13 0.13 88 1011.0
20260509152012 11 179 4.8 9.7 0.08 0.08 0.08 87 1011.0
20260509151512 11 172 4.8 16.1 0.05 0.05 0.05 86 1010.9
20260509151006 11 160 6.4 16.1 0.05 0.05 0.05 86 1010.8
20260509150509 11 209 4.8 11.3 0.03 0.03 0.03 85 1010.7
20260509150018 11 148 3.2 11.3 0.00 0.00 0.00 85 1010.7
20260509145507 11 157 4.8 11.3 0.00 0.00 0.00 85 1010.7
20260509145009 11 148 4.8 9.7 0.00 0.00 0.00 84 1010.8
20260509144523 11 205 6.4 9.7 0.00 0.00 0.00 83 1010.8
20260509144008 11 210 4.8 6.4 0.00 0.00 0.00 83 1010.6
20260509143509 11 173 0.0 4.8 0.00 0.00 0.00 84 1010.6
20260509143028 11 190 1.6 4.8 0.00 0.00 0.00 85 1010.5
20260509142509 11 185 0.0 3.2 0.00 0.00 0.00 85 1010.4
20260509142009 11 185 0.0 3.2 0.00 0.00 0.00 86 1010.3
20260509141536 11 185 1.6 12.9 0.00 0.00 0.00 85 1010.3
20260509141014 11 186 3.2 12.9 0.00 0.00 0.00 84 1010.4
20260509140508 11 183 4.8 12.9 0.00 0.00 0.00 86 1010.6
20260509140014 11 180 3.2 11.3 0.00 0.00 0.00 86 1010.6
20260509135510 11 199 3.2 8.0 0.00 0.00 0.00 87 1010.7
20260509135011 11 207 1.6 8.0 0.00 0.00 0.00 90 1010.6
20260509134519 11 242 0.0 6.4 0.00 0.00 0.00 89 1010.4
20260509134009 10 192 1.6 6.4 0.00 0.00 0.00 90 1010.3
20260509133508 10 192 1.6 4.8 0.00 0.00 0.00 90 1010.2
20260509133025 10 57 0.0 3.2 0.00 0.00 0.00 91 1010.1
20260509132507 10 57 0.0 0.0 0.00 0.00 0.00 91 1010.0
20260509132010 10 57 0.0 3.2 0.00 0.00 0.00 90 1010.1
20260509131526 10 57 0.0 8.0 0.00 0.00 0.00 90 1010.1
20260509131010 10 57 0.0 8.0 0.00 0.00 0.00 90 1009.9
20260509130510 10 56 4.8 8.0 0.00 0.00 0.00 90 1009.8
20260509130026 11 251 3.2 4.8 0.00 0.00 0.00 90 1010.1
20260509125512 10 240 0.0 3.2 0.00 0.00 0.00 90 1010.2
20260509125007 10 240 0.0 3.2 0.00 0.00 0.00 90 1010.3
20260509124517 10 240 0.0 3.2 0.00 0.00 0.00 90 1010.6
20260509124008 10 238 0.0 3.2 0.00 0.00 0.00 90 1010.6
20260509123507 10 238 0.0 6.4 0.00 0.00 0.00 90 1010.6
20260509123022 10 238 0.0 6.4 0.00 0.00 0.00 89 1010.6
20260509122509 10 267 0.0 3.2 0.00 0.00 0.00 89 1010.6
20260509122010 10 267 0.0 3.2 0.00 0.00 0.00 88 1010.6
20260509121522 10 267 0.0 3.2 0.00 0.00 0.00 88 1010.5
20260509121015 10 267 1.6 3.2 0.00 0.00 0.00 87 1010.4
20260509120508 10 267 0.0 3.2 0.00 0.00 0.00 87 1010.3
20260509120027 10 267 0.0 3.2 0.00 0.00 0.00 87 1010.3
20260509115508 10 266 1.6 4.8 0.00 0.00 0.00 86 1010.4
20260509115012 10 266 0.0 8.0 0.00 0.00 0.00 85 1010.3
20260509114529 10 279 1.6 8.0 0.00 0.00 0.00 85 1010.4
20260509114009 10 244 0.0 4.8 0.00 0.00 0.00 84 1010.1
20260509113510 10 244 1.6 8.0 0.00 0.00 0.00 82 1010.1
20260509113022 11 316 3.2 8.0 0.00 0.00 0.00 81 1010.1
20260509112507 11 293 1.6 6.4 0.00 0.00 0.00 79 1010.1
20260509112010 11 32 1.6 3.2 0.00 0.00 0.00 78 1009.8
20260509111522 11 148 0.0 3.2 0.00 0.00 0.00 79 1009.5
20260509111010 11 148 0.0 6.4 0.00 0.00 0.00 79 1009.6
20260509110511 11 145 0.0 8.0 0.00 0.00 0.00 79 1009.5
20260509110025 11 150 0.0 11.3 0.00 0.00 0.00 79 1009.5
20260509105510 10 150 4.8 11.3 0.00 0.00 0.00 79 1009.4
20260509105010 10 150 0.0 6.4 0.00 0.00 0.00 80 1009.4
20260509104528 10 150 1.6 6.4 0.00 0.00 0.00 80 1009.5
20260509104008 10 149 0.0 0.0 0.00 0.00 0.00 80 1009.6
20260509103509 10 148 0.0 3.2 0.00 0.00 0.00 80 1009.6
20260509103027 10 148 0.0 3.2 0.00 0.00 0.00 80 1009.6
20260509102508 10 148 1.6 3.2 0.00 0.00 0.00 79 1009.8
20260509102011 10 148 1.6 3.2 0.00 0.00 0.00 80 1009.8
20260509101520 10 148 1.6 3.2 0.00 0.00 0.00 79 1009.8
20260509101007 10 147 1.6 3.2 0.00 0.00 0.00 78 1009.8
20260509100508 11 147 0.0 3.2 0.00 0.00 0.00 75 1009.8
20260509100028 11 146 0.0 1.6 0.00 0.00 0.00 74 1009.6
20260509095512 11 146 0.0 3.2 0.00 0.00 0.00 74 1009.6
20260509095012 11 146 0.0 3.2 0.00 0.00 0.00 74 1009.6
20260509094526 11 146 0.0 3.2 0.00 0.00 0.00 74 1009.5
20260509094005 11 146 0.0 3.2 0.00 0.00 0.00 74 1009.6
20260509093505 10 146 0.0 4.8 0.00 0.00 0.00 74 1009.7
20260509093012 10 145 0.0 4.8 0.00 0.00 0.00 75 1009.7
20260509092507 10 161 0.0 4.8 0.00 0.00 0.00 75 1009.7
20260509092008 10 120 0.0 4.8 0.00 0.00 0.00 75 1009.4
20260509091519 10 119 0.0 9.7 0.00 0.00 0.00 75 1009.5
20260509091013 10 146 0.0 12.9 0.00 0.00 0.00 75 1009.5
20260509090510 10 161 4.8 12.9 0.00 0.00 0.00 75 1009.6
20260509090035 10 142 0.0 6.4 0.00 0.00 0.00 76 1009.5
20260509085504 10 157 0.0 9.7 0.00 0.00 0.00 76 1009.6
20260509085004 10 156 3.2 9.7 0.00 0.00 0.00 76 1009.7
20260509084507 10 161 3.2 9.7 0.00 0.00 0.00 76 1009.8
20260509084006 10 163 1.6 8.0 0.00 0.00 0.00 76 1009.8
20260509083504 10 161 3.2 8.0 0.00 0.00 0.00 76 1009.9
20260509083011 10 161 1.6 8.0 0.00 0.00 0.00 76 1009.9
20260509082507 10 163 1.6 8.0 0.00 0.00 0.00 76 1009.9
20260509082009 10 165 0.0 6.4 0.00 0.00 0.00 76 1009.8
20260509081513 10 166 3.2 8.0 0.00 0.00 0.00 75 1009.8
20260509081009 10 152 3.2 8.0 0.00 0.00 0.00 75 1009.9
20260509080508 10 148 3.2 9.7 0.00 0.00 0.00 75 1009.9
20260509080020 10 155 3.2 9.7 0.00 0.00 0.00 75 1010.0
20260509075508 10 153 3.2 6.4 0.00 0.00 0.00 75 1010.0
20260509075013 10 153 1.6 4.8 0.00 0.00 0.00 75 1010.1
20260509074504 10 151 1.6 6.4 0.00 0.00 0.00 75 1010.2
20260509074004 10 151 4.8 6.4 0.00 0.00 0.00 75 1010.2
20260509073504 10 149 3.2 4.8 0.00 0.00 0.00 76 1010.3
20260509073021 10 148 1.6 3.2 0.00 0.00 0.00 76 1010.3
20260509072505 10 147 0.0 3.2 0.00 0.00 0.00 76 1010.3
20260509072008 10 147 0.0 3.2 0.00 0.00 0.00 76 1010.6
20260509071512 10 147 0.0 3.2 0.00 0.00 0.00 76 1010.7
20260509071007 10 147 0.0 3.2 0.00 0.00 0.00 76 1010.8
20260509070508 10 147 0.0 0.0 0.00 0.00 0.00 75 1010.8
20260509070016 10 147 0.0 0.0 0.00 0.00 0.00 75 1010.8
20260509065509 10 147 0.0 3.2 0.00 0.00 0.00 75 1010.8
20260509065011 10 147 0.0 3.2 0.00 0.00 0.00 75 1010.8
20260509064524 10 148 0.0 3.2 0.00 0.00 0.00 74 1010.9
20260509064016 10 147 0.0 3.2 0.00 0.00 0.00 74 1011.0
20260509063509 10 147 0.0 0.0 0.00 0.00 0.00 74 1011.0
20260509063013 10 147 0.0 0.0 0.00 0.00 0.00 74 1011.0
20260509062505 10 148 0.0 3.2 0.00 0.00 0.00 74 1011.1
20260509062008 11 147 0.0 3.2 0.00 0.00 0.00 74 1011.0
20260509061509 11 148 0.0 3.2 0.00 0.00 0.00 74 1011.0
20260509061008 11 148 0.0 0.0 0.00 0.00 0.00 73 1011.1
20260509060505 11 148 0.0 0.0 0.00 0.00 0.00 73 1011.2
20260509060025 11 148 0.0 0.0 0.00 0.00 0.00 73 1011.2
20260509055507 11 148 0.0 1.6 0.00 0.00 0.00 73 1011.2
20260509055008 11 148 0.0 1.6 0.00 0.00 0.00 73 1011.2
20260509054522 11 148 0.0 1.6 0.00 0.00 0.00 74 1011.2
20260509054010 11 148 0.0 1.6 0.00 0.00 0.00 74 1011.2
20260509053509 11 148 0.0 1.6 0.00 0.00 0.00 75 1011.3
20260509053037 11 148 0.0 0.0 0.00 0.00 0.00 74 1011.4
20260509052508 11 148 0.0 0.0 0.00 0.00 0.00 75 1011.5
20260509052010 11 148 0.0 3.2 0.00 0.00 0.00 75 1011.5
20260509051513 11 148 0.0 3.2 0.00 0.00 0.00 76 1011.5
20260509051006 11 148 0.0 3.2 0.00 0.00 0.00 76 1011.5
20260509050505 11 148 0.0 1.6 0.00 0.00 0.00 75 1011.5
20260509050014 11 148 0.0 0.0 0.00 0.00 0.00 74 1011.5
20260509045509 11 148 0.0 1.6 0.00 0.00 0.00 72 1011.4